Flag for U.S.A. Weather past 2 weeks in Oceanside, California, U.S.A.

Now
76 °F

Sunny.


Feels Like: 76 °F
Forecast: 46 / 79 °F
Wind: 8 mph from Northeast

Location: Oceanside Weather Reporting Station

Current Time: Mar 6, 2015 at 10:33:01 AM

Latest Report: Mar 6, 2015 at 9:52 AM


Visibility: 10 mi

Pressure: 30.09 "Hg

Humidity: 14%

Dew point: 23 °F

Location of OceansideLocation

Historic Weather in Oceanside — Graph

°F

Oceanside temperature yesterday

Maximum temperature yesterday: 73 °F (at 10:52 AM)
Minimum temperature yesterday: 39 °F (at 2:52 AM)
Average temperature yesterday: 55 °F

Past Weeks' High & Low Weather Summary

 TemperatureHumidityPressure
High73 °F (Mar 5, 10:52 AM)93% (Feb 25, 10:52 PM)30.24 "Hg (Feb 25, 10:52 PM)
Low35 °F (Mar 6, 5:52 AM)18% (Mar 5, 10:52 AM)29.76 "Hg (Feb 27, 3:52 PM)
Average56 °F72%29.98 "Hg
* Reported Feb 19 9:00 AM — Mar 6 8:52 AM, Oceanside, Weather by CustomWeather, © 2015

Note: Actual official high and low records may vary slightly from our data, if they occured in-between our weather recording intervals... More about our weather records

Advertising

Oceanside weather history for previous 24 hours

 ConditionsComfort  
Time TempWeatherWind HumidityBarometerVisibility
8:52 AM
Fri, Mar 6
67 °FSunny.7 mph25%30.11 "Hg10 mi
7:52 AM51 °FSunny.3 mph56%30.12 "Hg10 mi
6:52 AM37 °FSunny.3 mph79%30.11 "Hg10 mi
5:52 AM35 °FClear.3 mph85%30.11 "Hg10 mi
4:52 AM37 °FClear.No wind82%30.11 "Hg10 mi
3:52 AM38 °FClear.5 mph83%30.11 "Hg10 mi
2:52 AM36 °FClear.3 mph85%30.11 "Hg10 mi
1:52 AM39 °FClear.3 mph82%30.13 "Hg10 mi
12:52 AM41 °FClear.No wind80%30.13 "Hg10 mi
11:52 PM
Thu, Mar 5
42 °FClear.No wind79%30.14 "Hg10 mi
10:52 PM43 °FClear.No wind76%30.14 "Hg10 mi
9:52 PM46 °FClear.3 mph71%30.15 "Hg10 mi
8:52 PM47 °FClear.No wind64%30.15 "Hg10 mi
7:52 PM53 °FClear.No wind51%30.14 "Hg10 mi
6:52 PM59 °FClear.No wind36%30.14 "Hg10 mi
5:52 PM65 °FClear.No wind27%30.13 "Hg10 mi
4:52 PM68 °FSunny.5 mph27%30.14 "Hg10 mi
3:52 PM69 °FSunny.8 mph33%30.14 "Hg10 mi
2:52 PM70 °FSunny.9 mph32%30.16 "Hg10 mi
1:52 PM69 °FSunny.10 mph47%30.17 "Hg10 mi
12:52 PM69 °FSunny.12 mph41%30.19 "Hg10 mi
11:52 AM68 °FSunny.6 mph39%30.22 "Hg10 mi
10:52 AM73 °FSunny.5 mph18%30.23 "Hg10 mi
Weather by CustomWeather, © 2015

See weather overviewHow to use our weather pages